Lid_Strength_Index
1 1 1 1 2 2 2 2 2 2 1 1 1 1 1 1 1 1 1 1 2 2 2 2 1 2 1 3 3 -0 -2 -0 3 4 5 6 7 6 5 4 5 5 4 4 4 5 4
1 1 1 1 1 1 2 2 2 2 1 1 1 1 1 1 1 1 2 2 2 2 2 1 1 2 2 4 -0 1 2 3 4 5 5 6 7 6 5 4 4 4 4 4 4 4 4
1 1 2 2 2 2 2 2 2 2 1 1 1 1 1 1 1 1 2 2 2 2 2 1 1 1 2 3 -0 0 1 3 3 5 6 5 5 6 5 5 3 4 5 5 4 4 4
1 1 1 1 2 2 2 2 2 2 1 2 1 2 2 2 2 2 2 2 2 2 1 1 1 0 3 1 -1 -0 -0 2 3 4 5 5 4 5 5 4 5 5 5 7 5 4 4
2 2 1 2 2 2 2 2 2 2 2 2 2 2 2 2 2 2 2 3 2 1 0 0 1 2 4 1 1 0 1 3 3 4 4 5 5 6 6 7 7 6 8 7 6 4 5
1 1 2 2 2 2 3 3 2 2 2 2 2 2 2 2 2 2 3 3 1 2 1 -0 0 3 2 4 1 1 1 2 4 5 5 6 6 8 7 8 10 8 8 7 7 5 5
1 1 1 2 2 2 2 3 3 2 2 2 2 2 2 3 2 3 2 1 3 3 2 4 3 4 3 2 1 1 1 2 3 5 7 6 8 9 8 7 6 6 7 7 6 5 6
1 1 1 1 2 3 3 2 3 2 2 2 1 2 2 3 3 3 2 4 5 4 6 3 3 3 2 2 4 2 1 4 5 7 6 7 9 7 7 7 7 8 8 7 6 5 6
1 1 1 2 1 3 2 3 2 3 2 2 2 2 2 3 3 3 2 4 3 3 5 4 3 4 3 2 4 3 2 3 5 6 6 7 7 6 8 8 9 8 7 7 7 6 6
1 1 2 2 2 3 3 3 3 1 2 2 2 2 2 3 3 1 2 2 3 1 7 6 5 4 4 3 4 2 2 3 4 6 5 6 5 7 8 9 8 9 7 6 7 7 10
2 0 1 2 3 3 3 2 3 2 1 1 2 2 2 3 1 3 2 1 2 1 13 5 4 2 3 4 4 4 1 3 5 6 6 7 6 7 8 8 7 9 6 7 7 7 8
1 -0 0 1 2 2 3 3 3 3 1 2 1 2 2 1 0 1 1 2 2 8 12 7 4 5 6 5 4 3 3 2 3 5 5 6 5 5 7 6 7 7 8 8 7 7 10
-0 -0 -1 1 1 2 3 3 3 3 2 1 1 2 2 0 2 0 1 4 8 10 6 7 6 5 6 6 5 5 5 6 7 8 8 6 6 5 5 6 6 7 8 11 12 11 12
-0 -1 -0 -0 0 2 2 3 3 3 3 1 2 2 1 -0 -1 1 2 7 10 8 7 6 6 6 7 6 6 6 6 7 5 6 8 9 10 6 5 6 7 7 7 10 13 12 11
-0 -1 -1 -1 0 1 2 3 3 3 2 2 2 -0 0 -1 -0 -1 4 10 8 7 6 7 6 7 7 6 6 6 6 7 6 5 8 8 9 6 6 5 5 7 8 6 9 8 10
0 -1 -1 -1 0 1 1 2 3 3 2 1 1 1 1 -1 -1 1 6 10 6 6 6 5 8 7 8 7 7 7 7 5 6 5 4 6 9 6 5 5 5 6 5 9 9 12 13
0 -1 -1 -0 1 2 2 2 3 3 3 1 1 4 1 -1 -0 4 8 8 6 5 5 6 7 7 7 7 7 7 7 6 5 5 4 5 7 8 6 7 7 7 8 7 7 9 12
0 -1 -0 0 1 1 2 2 2 2 3 3 2 6 0 -1 5 5 7 6 9 6 5 5 5 6 7 7 7 7 7 6 5 5 6 5 7 9 8 6 5 6 7 7 10 10 9
0 0 0 1 1 2 2 2 2 2 3 1 4 4 0 1 7 6 5 6 6 6 5 5 6 5 5 6 8 7 7 5 5 5 7 5 7 10 9 7 6 7 6 6 7 8 10
0 0 1 1 1 2 2 2 2 2 3 2 4 7 4 3 3 6 6 7 7 5 5 5 5 5 6 7 6 7 7 6 5 5 5 5 7 9 13 11 8 9 8 7 8 10 10
0 1 0 1 1 2 2 2 2 2 3 2 3 5 4 7 6 5 5 6 7 7 5 4 5 6 6 7 7 7 6 6 5 7 6 6 9 7 7 7 7 7 8 7 8 8 10
0 1 0 1 1 1 2 2 2 2 3 3 5 5 3 5 4 6 7 7 6 6 5 6 6 5 6 7 6 8 6 6 6 5 6 6 8 7 9 7 7 8 7 7 7 7 7
0 0 1 1 1 1 2 2 1 2 3 2 1 2 4 6 6 6 6 6 6 5 5 4 5 5 6 6 4 4 4 4 5 6 6 7 8 9 10 7 8 10 8 8 7 7 7
1 0 1 1 2 2 2 1 1 2 3 1 1 2 5 8 6 6 5 5 6 5 6 5 4 5 4 3 3 3 4 4 5 5 5 8 8 8 10 8 13 9 6 6 7 7 7
1 1 1 2 1 1 2 2 1 1 2 1 -0 2 4 7 5 6 6 5 5 5 6 5 4 4 3 3 6 7 8 7 7 6 6 5 7 9 11 10 9 9 8 8 9 9 7
1 1 1 2 1 1 1 1 1 1 2 1 -0 0 3 5 6 5 5 5 6 6 6 5 4 2 3 5 6 10 10 8 9 9 5 6 6 9 10 12 13 10 7 5 5 11 7
1 1 1 1 0 1 1 1 1 1 2 1 0 -1 3 5 4 4 7 6 5 6 6 5 5 5 4 7 8 9 9 7 10 10 10 9 9 10 10 11 11 8 6 5 11 12 6
1 1 1 0 0 1 1 1 1 1 1 1 1 -1 2 4 4 3 3 5 5 5 9 6 6 6 6 8 8 8 8 8 8 8 9 9 10 10 10 11 15 6 6 10 8 6 6
1 1 1 1 1 1 1 1 1 2 1 2 1 -1 -1 3 4 1 1 1 2 3 5 5 6 5 5 6 8 10 8 9 8 11 6 10 8 11 10 12 7 6 6 5 5 6 6